User: anonymous   Login
Location: Unspecified
(0.0000°N, 0.0000°E)
Time: 20:13:24
(UTC+00:00)
Language:

STARLINK-32372 - Orbit

View from above orbital plane
View from above orbital plane
View from above satellite
View from above satellite

Ground track
Ground track

The orbit is defined by the following mean orbital elements,

1 61960U          26145.25849953 +.00000000 +00000-0 +44989-3 0 00005
2 61960  43.0005 107.1103 0001031 250.8512 109.2228 15.27597340    04
Epoch (UTC): 25 May 2026 06:12:14
Eccentricity: 0.0001031
inclination: 43.0005°
perigee height: 482 km
apogee height: 484 km
right ascension of ascending node: 107.1103°
argument of perigee: 250.8512°
revolutions per day: 15.27597340
mean anomaly at epoch: 109.2228°

The dashed part of the orbit path shows where the satellite is in the earth's shadow,  

DLR